Regional Weather Roundup
Issued by NWS

Home | Current Version | Previous Version | Graphics & Text | Print | Product List | Glossary On
Versions: 1 2 3 4 5 6 7 8 9 10 11 12 13 14 15 16 17 18 19 20 21 22 23 24 25 26 27 28 29 30 31 32 33 34 35 36 37 38 39 40 41 42 43 44 45 46 47 48 49 50
000
ASUS44 KMEG 231600
RWRTN
TENNESSEE HOURLY STATE WEATHER ROUNDUP
NATIONAL WEATHER SERVICE MEMPHIS TN
1100 AM CDT SAT MAY 23 2015

TNZ002-004-019-021-049-052-054-088>092-231700-
WEST TENNESSEE

CITY           SKY/WX    TMP DP  RH WIND       PRES   REMARKS
MEMPHIS INTL   PTSUNNY   77  54  44 VRB6      30.30S
NWS MEMPHIS      N/A     71 N/A N/A MISG        N/A
JACKSON        CLOUDY    71  53  52 SE5       30.32S
DYERSBURG      MOSUNNY   70  46  43 SE8       30.32S
PARIS          MOSUNNY   70  52  52 SE8       30.34R
LEXINGTON      SUNNY     73  50  43 S8        30.32S
$$

TNZ008-025-027-028-033-062-065-066-231700-
NORTH MIDDLE TENNESSEE

CITY           SKY/WX    TMP DP  RH WIND       PRES   REMARKS
NASHVILLE      PTSUNNY   72  49  44 SE3       30.35F
CLARKSVILLE    CLOUDY    71  51  49 VRB7      30.34F
COOKEVILLE     SUNNY     75  57  53 S8        30.37S
CROSSVILLE     SUNNY     71  51  49 VRB6      30.41S
$$

TNZ061-075-076-078-094-096-097-231700-
SOUTH MIDDLE TENNESSEE

CITY           SKY/WX    TMP DP  RH WIND       PRES   REMARKS
FAYETTEVILLE   SUNNY    N/A N/A N/A MISG      30.35S
TULLAHOMA      SUNNY     73  54  49 CALM      30.37S
WINCHESTER     SUNNY     73  55  53 S10       30.37S
COLUMBIA       SUNNY     75  54  46 S6        30.33S
SHELBYVILLE    SUNNY     77  57  50 S7        30.36F
$$

TNZ017-018-042-046-047-231700-
NORTHEAST TENNESSEE

CITY           SKY/WX    TMP DP  RH WIND       PRES   REMARKS
TRI CITIES     MOSUNNY   72  46  39 CALM      30.43S
ELIZABETHTON   SUNNY     73  45  35 CALM      30.43R
$$

TNZ012-013-036-069-073-074-231700-
CENTRAL EAST TENNESSEE

CITY           SKY/WX    TMP DP  RH WIND       PRES   REMARKS
KNOXVILLE      MOSUNNY   72  51  47 N5        30.40S
OAK RIDGE      MOSUNNY   73  49  42 SE6       30.42S
GATLINBURG     SUNNY     70  52  52 E5        30.41S
$$

TNZ083-085-099-231700-
SOUTHEAST TENNESSEE

CITY           SKY/WX    TMP DP  RH WIND       PRES   REMARKS
CHATTANOOGA    MOSUNNY   74  53  48 VRB3      30.38F
$$

SKY/WX REPORTED AS FAIR MEANS FEW OR NO CLOUDS BELOW
12 THOUSAND FEET.




USA.gov is the U.S. government's official web portal to all federal, state and local government web resources and services.